Regional Weather Roundup
Issued by NWS

Home | Current Version | Previous Version | Graphics & Text | Print | Product List | Glossary Off
Versions: 1 2 3 4 5 6 7 8 9 10 11 12 13 14 15 16 17 18 19 20 21 22 23 24 25 26 27 28 29 30 31 32 33 34 35 36 37 38 39 40 41 42 43 44 45 46 47 48 49 50

000
ASUS43 KTOP 040308
RWRKS

WEATHER ROUNDUP FOR KANSAS
NATIONAL WEATHER SERVICE GOODLAND KS
1000 PM CDT MON AUG 03 2015

NOTE:  "FAIR" INDICATES FEW OR NO CLOUDS BELOW 12,000 FEET WITH NO
SIGNIFICANT WEATHER AND/OR OBSTRUCTIONS TO VISIBILITY.

KSZ001>006-013>018-027>032-041>047-040400-
NORTHWEST KANSAS

CITY           SKY/WX    TMP DP  RH WIND       PRES   REMARKS
GOODLAND       CLOUDY    75  55  49 VRB3      29.98S
HAYS           MOCLDY    81  63  54 S10       29.93R
HILL CITY      CLOUDY    82  65  56 S5        29.93R
RUSSELL        MOCLDY    80  68  66 S9        29.91R
$$

KSZ061>065-074>080-084>089-040400-
SOUTHWEST KANSAS

CITY           SKY/WX    TMP DP  RH WIND       PRES   REMARKS
DODGE CITY     CLOUDY    77  64  64 SE9       29.95S
ELKHART          N/A     69  59  70 S10         N/A
GARDEN CITY    CLOUDY    78  65  63 SE10      29.95R
GREAT BEND     MOCLDY    81  66  61 S10       29.92S
LIBERAL        CLOUDY    79  64  61 SE12G20     N/A
PRATT          MOCLDY    81  64  57 S6        29.96R
$$

KSZ066>073-081>083-090>101-040400-
SOUTHEAST KANSAS

CITY           SKY/WX    TMP DP  RH WIND       PRES   REMARKS
CHANUTE        PTCLDY    77  67  71 S7        29.94R
COFFEYVILLE    PTCLDY    77  69  76 S6        29.93R
HUTCHINSON     PTCLDY    81  70  69 SE6       29.93R
MEDICINE LODGE   N/A     81  68  64 S5        29.92R
NEWTON         MOCLDY    81  66  61 S8        29.96R
PARSONS        PTCLDY    73  69  87 CALM      29.94R
WICHITA INTL   MOCLDY    81  69  67 S9        29.93R
WICHITA JABRA  MOCLDY    82  68  62 S8        29.93R
WICHITA MCCONL MOCLDY    80  69  67 SE9       29.94R
$$

KSZ007>012-019>026-033>040-048>060-102>105-040400-
NORTHEAST KANSAS

CITY           SKY/WX    TMP DP  RH WIND       PRES   REMARKS
CONCORDIA      CLOUDY    78  73  84 E8        29.92R
EMPORIA        MOCLDY    81  69  67 S9        29.92R
LAWRENCE       PTCLDY    78  69  73 NE9       29.91R
MANHATTAN      MOCLDY    83  73  72 SE3       29.90R
MARYSVILLE     MOCLDY    75  72  88 E6        29.94R
OLATHE IND     PTCLDY    80  72  76 E6        29.93R
OLATHE EXE     MOCLDY    80  72  76 NE12      29.92R
SALINA         MOCLDY    84  70  62 S7        29.91R
TOPEKA BILLARD PTCLDY    79  73  82 E6        29.91R
TOPEKA FORBES  PTCLDY    81  73  76 E9        29.92R
$$



USA.gov is the U.S. government's official web portal to all federal, state and local government web resources and services.